Wind_Speed
27 28 28 28 27 27 25 23 23 24 24 23 22 22 23 24 24 25 25 26 27 28 29 30 30 30 30 29 29 28 28 27 27 26 26 26 26 26 26 26 26 26 26 26 26 26 25 25 25 25 25 25 25 24 24 23 23 23 23 23 24 25 25 26 27 28 29 29 30 30 30 29 29 30 30 31 31 31 31 31 30 29 28 27 26 26
28 27 26 25 23 23 22 22 22 23 23 23 23 24 25 25 26 26 27 27 28 29 29 30 29 29 29 29 28 27 27 27 26 26 26 26 26 26 26 27 27 27 26 26 25 25 25 24 24 24 24 24 23 23 23 23 23 23 23 24 25 26 27 28 28 29 30 30 30 30 30 29 30 30 31 31 32 31 31 30 29 28 27 26 26 26
27 25 24 22 21 21 22 22 22 22 23 24 25 25 26 26 27 27 28 29 29 29 29 29 29 29 29 28 28 27 27 27 26 26 26 26 26 26 27 27 28 27 26 25 25 24 24 24 23 23 22 22 22 22 22 22 23 23 24 25 26 27 28 28 29 30 30 31 31 31 30 30 30 31 31 32 32 32 31 29 28 27 26 26 26 26
24 23 21 20 20 21 23 23 23 23 24 24 25 26 26 27 27 28 29 29 29 29 29 28 28 28 28 28 28 27 27 26 26 26 26 26 26 27 27 28 28 27 26 25 24 23 23 23 23 22 22 21 21 21 22 23 23 24 25 26 26 27 28 28 29 30 31 31 31 31 31 31 31 32 32 32 32 31 30 28 27 26 26 25 26 26
21 20 19 20 21 22 23 23 23 24 25 25 26 26 27 27 28 28 29 29 29 28 28 28 28 28 28 28 27 27 26 25 25 25 25 26 26 27 28 28 28 27 26 25 24 23 22 22 22 22 21 21 21 22 22 23 24 24 25 26 26 27 27 28 29 30 31 30 30 30 31 31 32 32 32 31 31 30 29 27 26 26 26 26 26 27
17 18 19 20 22 23 23 23 24 25 25 26 27 27 27 27 28 28 28 27 27 27 27 27 27 27 27 26 26 25 24 24 24 25 27 28 30 30 30 29 27 26 25 24 24 23 22 21 21 21 21 22 22 23 23 24 24 25 25 26 26 27 27 28 29 30 30 30 30 30 31 32 32 32 31 30 29 29 28 27 26 26 26 26 27 27
17 17 19 21 23 23 24 24 25 25 26 27 27 28 28 27 27 27 26 26 26 26 27 27 26 26 25 25 24 24 24 25 26 28 31 32 33 32 30 27 25 24 23 22 22 22 21 21 21 21 22 23 23 24 24 25 25 25 26 26 26 27 27 28 29 30 30 30 30 31 31 32 32 32 31 30 29 28 27 27 26 27 27 27 27 27
18 19 20 22 23 24 25 25 25 26 26 26 27 27 27 27 26 26 26 26 26 26 27 27 26 25 24 24 24 24 26 28 31 33 34 33 31 28 26 23 22 21 21 20 20 21 21 21 21 21 22 23 24 25 26 26 26 26 26 26 26 27 28 29 29 29 30 30 30 31 32 32 32 31 30 29 28 27 27 27 27 27 27 27 27 27
20 21 22 22 23 25 26 27 26 26 26 25 25 25 26 26 26 26 26 26 26 26 26 26 26 26 25 25 26 27 30 32 33 34 33 31 28 25 23 22 21 21 21 21 21 21 21 21 22 22 22 23 25 27 28 29 28 27 27 26 27 27 28 28 29 29 29 29 30 31 31 31 30 29 29 28 27 27 27 27 28 27 27 27 27 27
21 22 23 24 25 26 27 28 28 27 25 24 23 22 23 24 25 26 27 27 27 27 27 26 26 27 27 28 29 30 32 34 33 32 30 27 25 23 22 22 22 22 23 23 23 23 23 23 22 22 22 24 27 30 31 30 29 28 27 27 26 27 27 28 28 29 29 29 29 30 31 30 29 28 28 28 27 27 27 28 27 27 27 27 28 28
22 23 25 26 26 27 27 27 28 27 25 23 22 21 21 22 24 26 28 29 29 29 27 26 26 27 29 30 32 32 33 34 32 30 26 24 23 22 22 22 22 23 24 24 25 25 24 23 22 22 24 27 29 31 31 30 28 27 27 26 26 26 27 28 28 29 29 29 29 30 30 29 29 28 28 28 28 28 28 27 27 27 27 28 28 28
23 24 25 26 27 27 26 26 26 25 23 22 22 23 23 23 24 26 28 29 29 28 27 26 26 27 29 32 34 34 34 32 30 28 25 23 22 22 22 23 24 25 25 26 26 25 25 24 24 25 28 29 30 30 29 28 27 27 26 26 26 27 27 28 28 28 28 28 29 30 29 29 29 29 29 28 28 28 28 28 27 27 27 27 27 27
23 24 25 26 26 25 25 25 24 23 23 22 23 25 26 26 26 26 26 26 26 25 25 27 28 31 32 34 34 34 32 31 28 26 24 22 21 22 24 26 28 29 29 29 28 27 27 27 29 30 30 30 29 29 27 27 26 26 25 26 26 27 27 27 27 28 28 29 29 29 29 29 29 29 29 29 28 28 28 28 28 28 28 28 27 27
23 24 24 24 24 24 24 23 24 24 24 24 24 25 25 26 25 24 23 23 23 24 26 29 33 35 35 34 33 31 29 28 26 24 22 22 24 26 29 32 33 34 33 32 31 30 30 30 30 30 29 28 27 27 26 25 25 24 25 26 26 27 27 27 28 28 29 29 29 29 29 29 29 29 29 29 28 28 28 28 27 28 28 27 27 27
23 22 22 23 23 23 23 24 25 25 25 24 24 24 25 24 23 22 22 23 26 28 31 34 36 36 34 31 28 26 24 22 21 22 25 28 31 33 34 35 35 34 32 31 29 29 28 28 28 28 27 27 26 26 25 24 24 24 25 26 26 27 27 27 28 28 29 29 29 29 29 29 29 29 29 29 29 28 28 28 28 28 27 27 27 27
21 21 21 22 24 24 25 25 25 25 25 24 24 24 24 24 24 24 25 27 30 32 33 35 36 35 31 26 22 20 20 21 25 28 32 35 36 35 34 32 31 30 28 27 26 26 26 26 27 27 28 27 26 25 24 23 23 24 25 26 26 27 27 27 27 28 28 29 29 29 29 29 29 29 29 29 28 28 28 28 28 27 28 27 27 27
20 20 22 23 25 26 26 26 25 24 24 25 25 25 25 25 26 28 29 30 32 33 33 34 34 32 27 24 21 21 24 28 32 34 35 36 35 34 30 28 27 26 25 24 24 25 25 26 27 27 28 27 26 25 24 24 24 24 25 26 26 26 26 27 27 28 28 29 29 29 29 29 29 29 28 28 28 28 28 28 28 27 27 27 27 27
20 22 25 26 27 27 26 26 25 25 25 26 26 27 27 28 28 29 29 30 30 31 32 33 31 28 27 27 28 30 31 32 32 32 32 32 32 30 28 25 24 24 24 23 23 24 25 26 26 27 27 26 25 25 24 24 24 25 25 26 26 26 26 27 27 28 28 29 29 29 29 29 29 28 28 28 28 28 28 28 27 27 27 27 27 27
24 26 28 28 27 27 26 26 26 26 27 27 28 29 29 29 28 28 28 29 29 30 31 32 31 31 30 32 34 36 34 31 29 29 29 29 29 27 25 24 23 23 23 23 24 25 26 27 27 27 26 25 24 24 24 24 24 25 25 25 25 26 26 27 27 28 28 29 29 29 29 28 28 27 27 27 27 27 27 27 27 27 27 27 27 26
27 27 27 26 26 26 26 25 25 26 26 27 27 27 27 27 27 28 30 32 33 33 32 31 31 31 32 33 35 36 33 28 26 25 26 26 26 25 24 24 24 24 25 25 26 27 28 28 28 26 25 24 23 23 23 23 24 24 24 25 25 26 26 27 27 28 28 29 29 28 28 27 27 26 26 26 26 27 27 27 27 27 26 26 26 26
26 25 24 23 23 24 24 24 24 24 24 24 24 24 24 26 28 31 33 34 34 33 31 29 29 30 32 33 34 32 29 25 23 24 25 25 26 26 25 25 26 27 27 28 28 29 29 28 27 25 24 23 22 22 22 23 23 23 24 24 25 26 26 27 27 28 28 28 28 27 27 26 26 25 25 25 26 26 26 26 26 26 26 26 26 26
22 22 22 21 21 22 22 23 22 22 22 23 24 25 27 29 31 32 33 33 31 29 27 27 28 30 32 32 30 27 23 21 21 22 24 26 26 25 25 26 27 28 29 29 29 29 28 27 26 25 23 22 22 22 22 23 23 23 24 24 25 26 26 27 27 28 28 27 27 26 25 25 25 25 25 25 25 25 25 25 25 25 25 25 26 26
18 19 19 19 19 19 20 21 21 23 24 26 28 30 31 31 31 30 30 28 26 26 25 27 29 30 30 27 24 21 19 19 20 22 24 24 24 25 26 27 27 28 28 29 29 29 28 27 25 24 23 22 22 22 23 23 24 24 24 25 25 26 26 27 27 27 26 26 25 24 24 24 24 24 24 24 24 24 24 24 24 24 25 25 26 26
15 16 17 17 18 19 21 23 25 27 29 30 30 30 29 28 27 26 25 24 25 26 27 28 29 28 26 24 21 19 18 19 20 21 23 23 25 26 27 27 27 27 28 29 29 28 28 26 25 24 23 23 23 24 24 24 24 25 25 25 25 26 26 27 26 26 25 24 23 23 23 23 24 23 23 23 23 23 23 23 23 24 24 25 26 27
15 16 18 19 21 23 25 27 28 29 29 28 27 25 23 22 22 22 23 24 25 26 27 27 27 26 25 23 21 19 19 19 20 21 22 23 25 26 26 26 27 28 29 29 29 28 27 27 26 25 25 25 25 25 25 26 25 25 25 26 26 26 26 25 25 24 23 22 22 22 22 22 22 22 22 22 22 22 22 23 23 24 24 26 27 28
19 21 22 24 26 28 29 28 28 27 25 22 20 19 19 19 21 22 23 23 24 25 25 25 25 25 24 23 21 19 19 19 20 20 22 23 25 26 26 27 27 28 29 30 29 28 27 27 27 27 27 27 27 27 27 27 26 26 26 26 26 25 24 23 22 21 20 19 19 20 20 21 21 21 21 21 21 22 22 22 23 24 25 26 27 28
23 24 26 27 28 28 28 26 24 21 19 16 15 15 17 19 21 21 21 22 23 23 24 24 24 24 23 21 19 18 18 18 19 20 21 23 24 26 26 27 27 28 30 30 29 28 27 26 27 27 27 28 28 28 28 27 27 27 26 26 25 24 23 22 20 19 18 18 19 19 19 19 20 20 20 20 21 21 21 22 22 23 24 25 27 27
25 26 26 26 26 24 22 19 17 16 14 13 13 14 16 18 19 20 21 22 22 23 22 23 22 21 20 19 18 17 16 17 18 20 21 23 24 25 26 27 27 28 29 29 29 28 26 26 26 27 27 28 29 29 29 28 28 27 26 25 24 23 22 20 19 18 18 18 18 19 19 19 19 19 20 20 20 20 20 21 21 22 23 24 24 23
23 23 23 22 20 18 16 15 13 13 12 12 12 13 16 18 19 19 20 21 22 21 21 21 20 18 17 17 17 16 15 15 17 19 21 22 23 24 26 27 27 28 29 28 28 28 27 26 26 26 27 29 29 30 30 29 28 27 26 24 23 21 20 19 18 18 18 18 19 19 19 19 19 19 19 19 19 19 19 19 20 21 21 21 20 19
21 21 20 18 16 15 13 12 12 12 12 12 13 15 17 19 20 20 20 20 20 19 19 18 17 15 15 16 17 16 15 16 18 19 21 22 23 25 26 27 28 27 27 26 27 27 27 28 28 28 28 29 30 30 30 30 28 27 26 24 22 20 19 19 19 19 19 19 19 19 20 19 19 19 19 19 18 18 17 17 18 19 19 19 17 16
20 19 17 16 14 12 11 11 11 12 14 15 16 18 19 20 19 19 18 18 17 16 15 14 14 13 13 14 15 16 15 17 18 19 20 22 23 25 26 27 28 27 26 25 24 25 26 28 30 31 30 30 31 31 30 29 27 26 24 23 21 20 19 19 19 20 20 20 20 20 20 20 20 19 19 18 17 16 15 15 16 17 17 16 15 14
18 16 15 13 12 11 11 12 13 14 15 17 18 18 18 18 17 17 16 15 14 13 12 11 11 12 12 13 14 15 17 18 18 18 20 21 23 25 26 27 28 28 27 25 23 22 23 25 29 33 33 32 32 31 29 27 26 24 23 22 21 20 20 20 21 21 21 21 21 21 21 20 20 19 18 17 16 14 13 12 13 14 14 14 13 13
15 14 12 12 11 11 12 13 15 16 16 17 17 17 17 17 17 17 16 14 12 10 9 9 10 12 13 14 14 16 17 17 17 18 19 21 23 25 27 28 28 28 28 27 24 22 22 24 28 31 33 33 32 30 28 26 24 23 22 22 21 21 21 21 22 22 23 23 22 22 21 21 20 19 18 16 15 13 11 10 10 10 11 12 12 13
14 12 11 11 11 12 13 14 15 16 16 16 16 17 18 19 18 17 15 12 10 8 8 9 10 12 13 15 16 18 18 18 18 18 20 21 23 25 27 28 29 29 30 29 27 25 25 26 28 30 31 32 30 28 26 25 23 22 21 21 22 22 23 23 23 23 23 23 23 23 23 22 21 19 18 16 14 12 11 10 9 9 10 11 13 14
15 13 12 11 12 12 13 14 14 15 15 16 18 19 20 20 19 17 13 10 8 8 9 10 11 13 14 15 17 18 19 19 19 19 20 21 23 25 27 28 29 29 30 29 29 28 27 28 28 28 30 32 30 27 25 23 22 22 21 21 22 23 23 23 24 24 24 25 25 24 24 23 21 19 17 15 14 12 11 10 10 10 10 11 13 15
15 14 13 13 13 14 14 14 14 15 16 18 19 20 21 21 19 16 11 8 8 11 13 14 14 14 15 15 17 18 19 20 20 20 20 21 22 24 26 27 28 29 29 29 29 29 29 30 29 29 29 30 30 28 25 22 22 22 22 22 22 23 23 23 24 25 26 26 26 25 24 23 21 19 17 15 13 13 12 12 11 12 12 12 13 14
14 14 14 14 14 14 14 14 14 15 17 18 19 19 20 21 19 15 9 8 10 13 15 15 15 15 15 15 16 17 19 20 21 21 20 21 22 23 25 27 27 28 28 29 29 30 30 30 30 30 29 29 29 28 26 24 23 23 24 24 24 24 24 24 25 25 26 27 26 25 24 23 21 19 17 15 14 13 13 12 13 13 13 13 14 14
15 14 14 14 14 14 13 13 14 15 16 16 17 18 20 20 17 13 8 9 12 14 15 16 16 16 15 15 16 17 18 19 20 21 21 21 22 23 24 26 27 27 27 28 28 29 29 29 29 29 29 29 28 27 26 25 26 26 26 25 25 25 25 25 26 26 27 26 26 24 23 22 21 20 18 16 15 14 14 14 14 14 15 15 15 15
16 15 14 14 14 13 13 14 15 15 15 15 15 17 19 18 15 10 9 11 14 15 15 16 16 17 17 17 17 17 18 19 20 21 21 22 23 23 24 25 26 26 27 28 28 27 27 27 27 27 28 29 28 26 24 25 26 28 28 28 26 25 25 26 26 27 27 26 25 24 23 23 22 21 19 17 16 16 15 15 16 16 16 17 17 17
16 14 14 13 12 12 13 14 15 16 15 14 14 16 17 15 11 9 10 12 14 15 15 16 17 18 18 18 18 17 17 18 19 21 21 22 22 22 22 23 24 25 26 27 27 27 26 26 26 25 25 26 26 25 24 25 26 27 29 30 30 29 27 27 27 27 26 26 25 25 24 23 23 21 20 18 17 16 16 16 17 17 17 18 19 19
15 14 14 13 11 11 12 14 16 17 15 13 13 15 15 13 11 11 12 12 13 14 15 16 17 18 19 19 19 18 18 19 20 20 21 21 20 20 20 21 22 23 25 26 26 25 24 24 24 23 22 22 23 23 24 24 25 26 28 30 31 30 28 27 27 27 26 25 24 24 24 24 23 22 20 18 17 16 16 17 17 18 18 19 19 20
14 14 14 12 11 11 11 14 17 18 15 13 13 14 13 12 13 13 14 14 14 15 16 17 18 20 21 21 21 20 20 20 21 21 20 19 19 18 18 18 19 21 22 23 24 23 22 21 21 20 20 20 21 22 24 24 25 26 27 28 30 30 29 27 26 25 25 25 24 24 24 25 24 24 22 20 18 16 15 16 17 18 19 20 20 19
14 14 13 12 11 10 10 12 16 18 16 13 13 13 12 12 13 14 15 16 16 17 18 19 20 21 22 23 23 23 23 23 23 22 21 19 18 17 17 18 18 19 20 21 22 21 20 18 18 17 17 17 19 21 23 25 26 26 27 27 29 30 31 29 27 25 24 24 24 24 24 25 25 25 24 22 20 17 16 16 17 18 20 22 22 22
14 14 14 13 12 10 10 10 13 15 15 13 12 12 12 12 13 15 15 16 17 18 18 19 20 21 22 23 24 25 26 25 25 24 22 20 19 18 19 20 21 21 21 20 21 21 19 18 16 15 14 15 17 19 22 24 26 27 28 28 28 29 29 29 27 25 24 23 23 23 24 25 26 26 25 23 21 19 17 17 17 19 21 23 25 25
14 14 15 15 14 13 11 10 10 12 12 11 10 11 11 12 13 15 16 17 18 18 19 19 20 21 22 23 25 26 27 28 27 25 23 21 20 20 21 23 23 23 21 20 18 18 17 16 15 14 14 14 16 18 21 23 26 27 28 28 28 28 28 26 25 25 24 24 23 24 24 25 26 27 27 26 23 21 19 18 19 20 22 25 27 27
14 16 17 18 17 15 13 10 9 9 9 9 9 10 11 12 13 15 16 17 18 18 19 19 19 20 22 23 25 27 29 29 29 27 25 23 22 22 23 24 25 24 22 20 17 15 13 13 14 14 15 16 17 19 20 23 25 27 28 28 28 27 26 25 23 23 23 24 24 24 25 26 27 29 29 28 26 23 20 19 20 22 23 26 27 28
15 17 18 19 19 17 14 11 9 9 9 9 9 10 11 13 14 15 16 17 18 18 18 19 19 20 21 23 24 26 27 29 30 29 27 26 25 25 25 26 25 24 22 20 17 14 12 10 11 12 15 17 19 21 22 23 24 26 27 27 27 26 25 24 22 22 22 23 24 25 26 28 29 30 30 30 29 26 23 21 20 21 23 25 27 28
15 17 18 20 20 19 16 12 9 8 9 10 10 10 11 12 14 15 17 17 18 18 18 19 20 20 21 22 24 25 26 27 29 29 28 28 27 27 27 27 26 25 23 21 19 16 12 9 9 11 13 15 18 20 22 23 24 24 25 25 25 25 24 22 21 21 22 23 24 26 27 28 29 30 31 31 31 29 26 23 22 21 22 23 24 26
14 16 17 19 20 19 17 13 9 8 9 11 11 10 10 12 14 15 16 17 17 17 18 19 20 21 22 23 24 25 26 27 28 28 28 28 28 29 29 28 27 26 24 22 20 17 13 10 8 9 12 14 16 19 22 23 24 24 23 24 24 23 23 22 21 21 22 24 25 26 27 27 28 30 31 31 31 31 29 26 24 22 22 22 24 25
14 15 16 18 19 19 17 14 10 8 9 11 11 10 10 12 14 16 16 16 17 17 18 19 20 21 22 23 24 25 26 27 28 28 27 27 28 28 29 29 28 27 26 25 23 21 17 13 10 9 11 14 17 20 23 24 24 23 23 23 22 22 22 22 21 22 23 25 26 27 27 27 28 29 30 30 31 31 30 28 26 24 23 24 25 26
14 14 15 16 18 18 18 14 11 8 8 9 9 9 10 13 15 16 16 16 17 18 18 19 20 21 22 24 25 26 27 27 27 27 26 26 27 27 28 28 29 29 29 28 27 26 23 19 15 13 13 15 19 22 23 24 24 24 23 22 21 21 21 22 22 23 24 26 27 28 28 28 28 28 29 29 30 30 30 29 28 26 25 26 26 27
Wind_Direction
265 269 275 282 287 291 293 295 297 298 300 303 305 308 312 314 315 316 317 317 317 317 317 316 316 316 315 315 315 316 316 316 316 314 312 310 308 307 307 307 307 307 306 304 303 302 301 300 300 300 300 300 300 299 298 297 296 296 296 295 296 296 297 298 300 301 302 304 305 306 306 305 304 304 304 304 304 304 305 305 305 304 303 303 303 303
276 282 288 292 294 295 297 300 302 303 305 306 308 311 313 315 316 318 319 319 319 318 317 317 316 316 315 315 315 315 314 314 313 312 311 310 310 309 309 309 309 309 307 305 304 303 302 302 302 302 302 302 302 301 301 300 299 298 298 297 297 297 298 299 300 300 301 303 305 305 305 305 304 304 304 304 304 305 305 306 305 305 304 304 303 302
287 292 295 297 298 299 301 304 306 305 305 306 308 311 313 315 316 318 319 319 319 318 317 317 316 315 314 314 313 313 312 312 312 312 312 312 311 311 309 308 309 308 307 305 304 303 303 303 304 305 306 306 306 304 303 302 301 300 298 297 297 297 298 298 299 299 301 304 305 306 305 305 304 304 304 304 305 306 306 306 305 305 304 303 302 301
294 296 299 301 302 303 305 306 306 305 304 306 309 312 314 315 316 317 318 319 319 318 317 316 314 313 312 311 311 310 311 311 311 311 311 310 309 307 306 306 306 306 305 304 303 303 302 302 303 305 309 310 309 307 305 303 301 300 299 298 298 298 298 298 298 300 303 305 307 306 306 305 304 304 305 305 306 306 306 305 305 304 303 303 302 301
297 298 300 302 303 303 305 305 305 306 307 309 312 314 315 316 316 317 318 319 318 316 315 313 311 310 308 308 308 308 308 309 308 307 307 305 304 303 303 303 302 301 300 300 299 300 301 301 302 305 309 311 310 308 305 303 302 301 300 299 299 299 299 299 300 302 306 307 307 306 306 305 304 304 305 306 306 306 305 305 305 304 303 302 301 300
299 300 302 301 301 302 305 306 308 310 313 314 315 316 316 315 315 316 316 316 315 312 311 309 308 307 306 306 306 306 306 306 305 304 303 303 303 304 304 304 302 300 298 297 296 297 299 302 304 307 310 311 311 309 307 305 304 302 301 301 300 299 299 300 303 306 308 308 307 306 305 304 304 305 305 306 306 306 306 306 305 304 302 300 300 300
301 301 302 300 300 302 305 309 312 315 317 317 317 316 315 314 314 314 313 312 310 309 308 308 307 307 306 305 304 304 303 302 301 301 302 303 305 307 307 306 305 302 300 299 298 298 300 302 304 307 310 312 312 311 310 309 307 304 303 301 300 300 300 303 306 309 309 308 307 306 305 304 305 305 306 306 306 306 306 305 303 302 300 299 300 300
302 301 300 299 301 305 309 313 316 318 319 317 316 314 314 313 313 312 311 309 308 308 308 308 307 306 305 303 302 300 299 299 299 300 303 305 308 310 310 308 306 303 301 300 299 299 299 300 301 304 307 310 312 313 313 311 308 306 303 302 301 301 303 306 308 309 309 308 306 305 305 305 306 306 307 307 306 306 304 303 301 300 300 300 301 301
300 299 299 300 304 309 313 315 317 318 318 315 313 312 312 312 311 310 309 309 308 309 309 308 306 304 301 299 298 297 298 298 300 302 305 307 310 311 311 308 305 303 300 298 297 296 295 295 295 298 302 306 309 311 311 309 307 305 304 302 302 303 305 308 309 309 308 307 306 305 305 306 307 307 307 307 306 304 302 301 300 301 302 302 302 302
299 298 300 303 307 312 315 316 317 317 316 314 311 310 309 310 309 309 308 308 308 308 307 305 303 300 299 298 297 298 300 302 303 305 306 308 310 310 309 307 304 302 299 296 293 291 290 289 290 293 299 304 308 309 308 306 305 304 304 303 304 305 307 308 308 308 307 306 305 306 306 307 307 307 307 306 305 303 302 301 302 302 303 303 303 302
300 301 303 307 310 312 314 315 315 315 315 314 311 309 307 306 306 307 307 307 307 306 304 301 299 298 299 300 301 303 304 305 306 307 308 308 309 309 308 307 305 302 299 294 290 286 283 283 287 293 300 304 306 307 306 305 304 304 304 304 305 306 307 307 307 307 306 305 306 306 307 308 308 307 306 305 304 303 303 303 303 304 304 303 303 302
303 305 308 310 312 313 314 314 315 315 314 312 310 308 306 305 304 304 303 304 304 304 303 301 300 300 301 302 304 306 306 305 305 305 306 306 307 308 310 309 308 306 303 299 294 289 286 286 292 299 304 306 306 306 305 304 303 303 304 305 306 306 307 307 306 306 305 305 306 307 308 308 308 307 306 305 304 304 304 304 304 304 304 303 303 302
306 309 311 311 312 313 314 314 313 312 310 308 306 304 304 305 306 304 302 302 303 304 305 305 305 304 304 304 305 305 305 303 301 300 301 304 308 312 313 313 311 310 308 305 302 299 297 299 303 307 309 310 309 308 306 304 304 304 305 306 306 307 306 306 306 306 305 305 306 307 308 308 307 306 305 305 304 304 304 304 304 303 303 303 303 303
310 310 310 310 311 312 312 311 310 308 307 307 306 306 306 307 307 306 304 303 304 305 307 308 308 307 307 306 306 304 302 299 297 298 302 308 313 316 315 314 312 311 309 307 305 303 304 307 310 313 315 315 314 311 307 305 304 305 306 307 307 306 306 306 306 307 306 306 306 307 307 306 306 305 305 304 304 304 304 304 304 303 303 303 303 303
310 309 309 309 310 309 309 308 308 309 309 309 309 308 308 307 306 305 305 306 307 309 311 312 312 310 308 306 306 305 303 302 303 308 312 314 315 316 316 315 314 313 312 311 309 309 311 315 318 320 321 320 316 311 307 305 304 305 307 307 307 307 307 307 307 307 308 307 307 306 306 306 305 305 304 304 304 304 304 303 303 303 303 303 303 303
307 307 308 309 308 308 308 309 309 309 309 309 308 306 305 304 304 305 306 308 310 312 315 316 315 312 309 308 308 310 312 314 316 316 317 316 316 317 319 320 319 318 317 316 316 317 319 321 323 323 322 319 314 310 306 305 305 306 306 306 305 306 307 308 308 309 308 308 307 306 306 305 305 305 304 304 304 304 303 302 303 303 303 303 303 303
304 306 308 308 307 307 307 308 308 307 306 305 304 303 302 303 304 306 308 310 312 314 317 319 316 312 312 313 314 316 318 319 319 319 319 319 320 322 325 325 323 321 320 319 318 319 321 321 320 319 318 315 312 308 306 305 305 305 306 305 306 307 308 309 309 309 309 307 306 306 306 305 305 305 304 305 304 304 303 302 302 303 303 304 304 303
302 305 307 306 305 305 305 305 304 304 304 304 304 304 305 305 307 309 311 312 314 315 317 320 318 315 314 315 315 316 320 323 324 323 322 322 323 326 329 327 323 319 317 315 315 317 317 317 316 315 314 312 309 306 305 304 305 305 306 307 307 308 310 310 310 309 308 307 306 306 306 306 305 305 305 305 305 304 303 302 302 303 303 304 304 304
301 303 305 305 304 304 303 303 303 304 305 305 305 305 306 307 309 312 314 314 313 313 313 315 316 315 314 315 315 318 322 326 326 323 321 320 322 325 327 325 320 314 311 310 311 313 314 315 315 315 313 311 308 306 306 306 307 308 309 309 310 310 311 311 310 309 308 307 307 307 307 306 306 305 305 305 305 304 303 302 302 303 304 305 305 305
300 302 303 304 304 303 301 301 302 303 303 304 304 305 306 308 310 311 311 310 310 309 308 308 309 310 311 313 314 317 322 327 326 321 318 318 319 322 323 322 317 312 309 309 310 312 314 315 316 317 315 314 312 310 310 311 312 312 311 311 311 311 311 311 310 309 308 309 309 309 308 307 307 307 307 307 306 304 303 304 304 304 305 306 306 306
300 302 302 302 300 299 298 299 300 301 302 304 307 310 312 312 311 308 307 307 309 309 309 308 307 306 307 310 312 317 323 326 323 319 317 317 318 319 320 319 316 313 311 310 311 313 315 317 318 318 318 317 316 316 316 316 317 315 313 313 312 312 311 311 311 310 310 310 310 311 310 310 309 309 308 308 307 306 305 305 306 306 307 306 306 305
300 300 299 297 294 293 294 296 299 301 305 308 312 315 315 313 311 310 309 310 312 313 312 309 307 305 306 308 312 318 324 323 319 317 317 317 316 316 317 317 316 314 312 312 314 316 317 318 319 320 321 321 321 321 321 321 320 318 316 314 313 313 313 313 312 311 313 313 313 313 312 312 311 311 311 310 309 309 308 307 307 307 307 306 305 305
296 293 291 291 291 293 296 300 303 305 306 307 308 308 308 309 310 310 311 312 312 310 308 305 303 303 305 308 313 318 320 316 314 315 316 315 315 315 317 318 317 315 314 316 318 320 320 320 321 323 324 326 326 326 326 324 322 320 317 315 314 314 314 314 314 314 314 315 315 314 314 314 314 313 313 312 311 310 309 309 308 307 307 306 305 304
289 288 289 292 296 300 303 305 305 305 304 303 303 302 303 305 306 307 306 305 303 301 301 301 303 306 309 313 316 319 318 316 316 317 317 316 315 317 319 319 319 319 319 320 321 322 322 322 324 326 328 330 330 329 328 326 323 321 318 316 316 316 316 316 316 317 317 317 317 316 316 316 316 315 315 314 313 312 310 310 309 308 307 306 305 304
286 288 292 295 298 300 301 302 302 302 301 301 302 304 306 306 304 301 299 298 297 299 302 306 310 314 319 323 326 327 326 324 324 323 321 318 317 318 320 321 322 323 322 323 324 324 324 324 326 329 331 332 331 330 329 327 324 322 320 319 318 319 319 320 321 321 321 320 320 320 319 318 317 316 315 315 313 312 311 311 310 310 309 307 305 303
284 286 289 291 293 295 296 298 298 299 300 303 308 312 310 305 300 298 299 301 304 307 311 315 319 322 326 331 334 335 333 330 328 325 323 320 319 319 321 323 324 325 325 325 326 326 326 326 327 329 331 331 331 330 329 327 326 325 324 324 324 325 326 326 327 327 327 326 325 324 322 320 319 317 316 315 314 313 312 313 312 312 310 308 305 303
285 286 288 290 292 294 296 297 299 302 305 311 318 317 309 303 302 305 310 312 313 315 318 319 321 325 329 332 336 337 336 331 327 325 323 321 321 322 324 326 327 328 327 327 326 326 325 325 326 328 329 330 330 330 329 329 328 329 329 330 331 332 333 334 334 333 333 331 330 327 325 322 320 318 316 315 314 314 314 314 314 313 311 309 308 310
288 290 292 295 297 300 303 307 309 311 315 321 323 318 309 308 310 314 316 315 315 316 316 318 321 325 329 331 335 338 336 330 326 325 324 323 324 325 326 328 330 330 329 327 327 326 325 324 324 326 328 329 329 329 330 331 332 334 335 337 338 339 339 339 339 338 337 336 334 331 328 325 322 320 318 317 317 318 317 317 317 315 314 314 316 321
299 300 302 305 308 312 316 320 321 320 319 320 320 317 313 313 315 316 314 312 312 313 314 316 321 328 332 332 337 340 337 330 327 326 326 326 326 327 328 330 332 333 332 329 328 327 325 324 325 326 327 328 329 330 331 334 336 338 340 341 342 343 344 344 343 342 341 339 337 334 331 328 326 324 324 323 323 323 322 321 321 321 320 321 325 331
310 311 313 316 320 324 328 328 323 317 314 313 313 312 311 312 312 311 310 310 311 313 316 320 327 333 336 336 338 338 334 330 330 330 328 328 328 329 331 333 335 336 336 333 330 326 324 325 326 327 327 327 328 330 333 336 339 340 342 343 345 347 348 347 346 345 343 341 339 336 334 332 331 331 332 332 331 330 328 328 327 326 325 326 331 340
316 318 322 327 331 335 333 325 316 310 308 309 309 309 310 312 314 316 316 317 318 319 323 329 336 341 341 338 334 330 326 329 333 333 331 329 330 332 335 336 337 338 340 337 331 325 322 323 326 328 328 328 329 331 335 338 340 342 343 344 347 349 351 351 349 347 345 343 342 340 339 338 338 339 340 340 339 338 336 336 334 331 328 330 336 348
321 326 332 336 338 335 326 317 311 309 310 312 314 316 319 323 328 331 332 331 329 330 334 339 344 347 347 341 332 326 325 332 337 338 335 333 333 335 338 338 338 339 341 340 334 325 319 318 321 325 328 329 330 333 337 340 343 344 346 346 348 351 354 353 351 348 347 346 345 345 344 344 345 346 346 347 347 346 346 345 342 338 335 336 343 354
327 333 336 336 333 326 319 315 314 315 318 322 326 331 337 342 345 345 343 341 340 342 347 348 349 349 348 344 338 335 336 341 343 342 339 337 335 335 337 338 338 339 340 339 336 329 320 316 318 322 327 330 333 336 341 345 348 349 350 350 351 354 355 355 353 350 349 349 349 349 349 349 350 351 351 352 353 354 355 355 353 351 349 349 352 356
331 333 331 327 324 320 318 317 319 325 332 339 346 350 353 353 351 348 346 347 350 357 3 1 358 355 351 346 342 343 346 349 349 346 344 339 335 334 335 337 338 339 339 338 336 332 326 323 322 323 326 331 336 341 345 349 352 355 356 355 355 356 357 357 355 353 352 351 351 352 352 352 353 353 355 356 358 0 2 3 5 6 6 3 0 358
334 332 329 326 324 323 323 325 332 342 350 357 0 0 357 353 350 348 349 354 6 18 23 18 11 3 356 349 345 344 347 350 351 349 345 340 335 334 334 335 336 337 337 336 335 333 330 328 327 326 326 329 336 344 352 354 356 357 359 360 360 360 0 359 357 355 354 354 354 354 354 354 354 355 356 358 0 2 4 6 9 12 13 11 7 3
338 337 337 336 335 335 336 342 351 0 5 7 5 0 354 349 347 347 352 7 27 34 31 24 16 8 1 354 348 346 346 348 350 349 344 339 335 333 333 333 335 336 336 335 334 332 330 329 329 328 327 327 332 341 352 359 360 359 0 2 3 3 4 3 1 358 357 356 355 355 355 355 356 357 358 359 1 2 4 7 9 10 11 10 9 7
344 345 346 346 345 344 347 355 4 11 12 10 4 356 348 346 345 346 355 22 37 35 28 21 14 9 4 359 353 350 348 348 348 346 341 337 334 333 332 332 333 334 334 333 333 332 331 329 328 328 327 326 327 333 343 354 360 1 2 2 3 4 5 5 4 1 358 357 356 356 356 357 358 360 1 2 2 2 4 7 8 9 9 10 10 10
353 353 353 350 349 352 358 6 11 14 13 8 359 350 344 343 343 347 4 28 33 29 22 16 12 9 7 3 359 355 351 347 344 340 336 333 332 332 331 331 331 332 331 331 331 331 330 328 326 325 325 326 328 332 339 348 353 356 359 1 3 4 4 4 4 2 359 357 356 357 358 359 1 3 5 5 5 5 6 8 9 10 10 10 11 11
357 357 356 354 356 1 9 13 13 11 8 2 354 346 342 342 345 354 15 26 26 24 19 14 10 9 8 6 3 358 352 345 339 334 332 330 330 330 330 330 329 329 328 328 328 328 327 325 322 320 320 322 327 334 342 348 351 353 354 357 1 4 6 5 3 1 359 358 358 359 0 2 4 5 7 8 9 9 9 10 11 11 10 7 7 7
0 0 360 360 5 13 18 15 10 5 1 357 350 345 344 348 358 15 24 22 20 18 16 12 9 8 8 7 4 358 350 342 336 333 331 330 330 329 329 328 326 325 325 325 325 325 324 321 319 319 319 321 324 331 340 347 351 352 351 350 353 358 4 4 2 359 359 360 0 1 2 3 5 6 8 9 10 10 10 10 10 10 8 5 2 1
2 3 3 5 13 22 21 14 7 2 359 357 353 350 350 358 11 19 18 15 14 14 13 10 8 6 5 5 3 358 350 343 338 336 334 332 330 329 328 327 325 324 323 323 323 322 322 320 320 321 323 325 328 333 339 345 350 351 349 346 347 351 358 0 359 358 359 1 3 4 3 4 6 7 9 10 10 10 10 8 7 6 5 3 360 358
5 5 6 10 16 20 18 13 8 5 4 2 358 355 356 6 12 10 6 6 11 15 14 11 7 5 4 4 2 359 354 349 346 344 342 339 336 333 332 330 329 328 326 325 325 325 326 326 325 326 329 331 332 334 339 346 351 352 350 347 347 350 354 358 0 0 0 3 5 6 5 6 7 9 10 11 10 10 9 8 6 4 2 0 359 359
6 7 9 12 13 13 13 11 10 9 8 8 3 359 359 8 9 5 1 6 12 16 15 12 8 3 360 359 359 359 357 355 354 352 351 349 347 344 343 342 342 340 338 335 333 334 335 334 334 334 336 337 336 335 338 344 349 351 351 350 348 345 344 350 357 2 3 5 6 6 6 7 8 10 11 11 11 10 9 9 8 6 5 3 2 2
8 11 14 13 11 8 6 9 11 12 12 11 6 359 359 6 6 2 2 9 15 16 14 10 5 1 357 356 356 357 358 358 358 358 357 356 355 354 354 354 354 353 351 347 343 340 339 339 340 341 341 340 339 339 341 344 347 349 350 350 347 343 340 344 352 358 2 5 7 7 7 7 8 10 11 13 13 13 12 11 10 9 9 8 7 7
12 16 17 14 12 9 7 8 13 16 17 13 5 359 359 3 3 2 5 12 16 15 12 8 2 357 354 355 355 356 357 358 359 359 359 360 0 0 360 359 358 359 358 356 351 346 342 341 341 344 345 344 344 345 346 346 347 347 348 349 347 345 345 349 354 357 359 3 5 7 7 8 8 9 11 13 15 16 16 14 13 12 11 11 10 10
17 19 18 15 12 8 6 8 14 20 20 15 6 1 0 1 1 3 8 13 13 11 9 6 0 355 352 352 354 355 356 357 358 358 359 1 3 3 2 0 360 0 1 1 0 355 349 343 341 343 345 347 350 351 351 349 346 345 346 347 346 346 349 354 358 360 0 2 4 6 7 8 9 9 10 11 13 16 18 18 16 13 12 11 10 10
19 19 18 15 11 7 6 9 17 22 23 18 9 2 358 357 358 3 9 12 11 8 5 3 0 357 354 354 354 354 354 354 355 357 358 0 2 3 2 0 0 1 4 7 9 8 2 352 346 346 348 349 349 350 351 350 347 344 344 345 347 348 351 355 360 2 2 3 4 6 8 9 9 9 9 9 11 13 16 18 18 16 13 11 9 8
20 21 19 16 11 7 4 7 14 22 24 20 13 3 355 354 358 4 8 10 9 5 2 1 0 360 358 357 357 356 355 354 354 356 357 358 0 0 360 359 359 2 6 12 16 20 20 12 0 355 355 353 350 347 347 348 347 346 345 346 348 349 352 356 360 2 2 4 6 8 10 10 10 9 8 8 8 10 12 14 16 16 13 10 8 5
23 23 21 18 13 9 5 5 10 17 19 19 15 4 351 355 1 6 6 6 5 3 2 2 2 0 360 359 360 359 359 358 357 356 356 357 357 357 357 358 360 2 6 12 18 27 36 40 27 10 4 360 353 348 346 347 348 348 348 349 350 351 352 356 359 1 2 4 7 9 11 12 11 10 8 6 5 5 8 10 12 13 12 9 6 3
24 25 23 20 16 12 9 7 7 10 14 18 15 5 354 358 4 6 5 5 4 4 4 4 4 2 1 1 2 2 2 0 358 357 356 355 354 353 354 357 0 3 6 10 15 23 34 48 51 38 19 7 359 353 350 350 350 350 351 353 353 354 353 354 357 0 2 4 6 8 10 11 12 11 9 7 4 3 4 6 8 9 9 7 5 2
22 24 24 22 20 17 14 12 9 8 11 15 11 2 358 1 4 4 4 4 6 6 7 6 6 5 3 3 3 4 3 2 359 357 355 354 353 352 353 356 0 3 4 6 9 13 18 23 29 33 30 15 6 0 356 354 353 352 352 354 356 356 355 354 356 359 0 2 4 6 8 9 10 11 10 8 5 1 1 2 3 5 6 5 4 1
Height
1490 1491 1491 1492 1492 1491 1490 1490 1490 1489 1488 1488 1488 1487 1487 1486 1485 1484 1483 1482 1482 1481 1479 1478 1477 1477 1475 1474 1473 1472 1471 1470 1469 1468 1467 1466 1465 1464 1463 1462 1461 1460 1459 1457 1457 1455 1454 1453 1452 1451 1450 1449 1448 1447 1447 1446 1446 1445 1444 1443 1442 1442 1441 1440 1439 1438 1437 1435 1434 1433 1432 1431 1429 1428 1427 1425 1424 1422 1421 1420 1419 1417 1417 1415 1414 1413
1489 1490 1490 1490 1490 1489 1488 1488 1488 1487 1487 1486 1486 1485 1484 1483 1482 1482 1481 1480 1480 1479 1477 1476 1475 1474 1473 1472 1471 1470 1469 1468 1467 1466 1465 1464 1463 1462 1462 1460 1459 1458 1457 1456 1455 1454 1453 1452 1451 1450 1449 1448 1447 1446 1445 1444 1444 1443 1442 1442 1441 1440 1439 1438 1437 1436 1434 1433 1432 1431 1429 1428 1427 1426 1424 1423 1421 1420 1418 1417 1416 1415 1414 1413 1412 1412
1489 1489 1489 1488 1488 1487 1487 1487 1487 1486 1486 1485 1484 1483 1482 1482 1480 1480 1479 1478 1477 1477 1476 1474 1473 1472 1470 1469 1468 1468 1467 1466 1465 1464 1463 1463 1462 1461 1460 1459 1458 1457 1456 1455 1453 1452 1451 1450 1449 1448 1447 1446 1445 1445 1444 1443 1442 1442 1441 1440 1439 1438 1437 1436 1434 1433 1432 1431 1429 1428 1427 1426 1424 1423 1422 1420 1419 1417 1416 1415 1414 1413 1412 1412 1411 1410
1488 1488 1487 1487 1486 1486 1486 1485 1485 1485 1484 1484 1482 1482 1481 1480 1479 1478 1477 1476 1475 1474 1473 1472 1471 1469 1468 1467 1467 1466 1465 1464 1464 1463 1462 1461 1460 1459 1458 1457 1456 1455 1454 1453 1452 1451 1450 1449 1448 1447 1446 1445 1444 1443 1442 1442 1441 1440 1439 1438 1437 1436 1435 1433 1432 1431 1430 1428 1427 1426 1425 1423 1422 1420 1419 1417 1416 1415 1414 1413 1412 1412 1411 1410 1409 1408
1487 1487 1486 1486 1485 1485 1485 1485 1484 1483 1483 1482 1481 1480 1479 1478 1477 1476 1475 1474 1473 1472 1471 1470 1469 1468 1467 1466 1465 1465 1464 1463 1462 1462 1461 1460 1459 1458 1457 1456 1455 1454 1452 1452 1451 1450 1449 1447 1447 1446 1445 1444 1443 1442 1441 1440 1439 1438 1437 1436 1435 1434 1432 1431 1430 1429 1427 1426 1425 1424 1422 1421 1419 1418 1417 1415 1414 1413 1412 1411 1410 1409 1408 1408 1407 1406
1486 1485 1485 1484 1484 1484 1483 1483 1483 1482 1481 1480 1479 1478 1477 1476 1475 1474 1473 1472 1471 1470 1469 1468 1468 1467 1466 1465 1464 1464 1463 1462 1461 1460 1459 1458 1457 1456 1455 1454 1453 1452 1451 1450 1449 1448 1447 1446 1445 1444 1443 1442 1442 1441 1440 1438 1437 1437 1435 1434 1433 1432 1431 1429 1428 1427 1425 1424 1423 1422 1420 1418 1417 1416 1414 1413 1412 1411 1410 1409 1408 1407 1407 1406 1405 1403
1484 1484 1484 1483 1483 1483 1482 1482 1481 1480 1479 1478 1477 1476 1475 1474 1473 1472 1472 1471 1470 1469 1468 1467 1467 1466 1465 1464 1463 1462 1462 1461 1460 1459 1457 1457 1456 1454 1453 1452 1451 1450 1449 1448 1447 1447 1446 1445 1444 1443 1442 1441 1440 1439 1438 1437 1436 1435 1433 1432 1431 1430 1428 1427 1426 1425 1423 1422 1421 1419 1418 1416 1415 1413 1412 1411 1410 1409 1408 1407 1406 1405 1404 1403 1402 1401
1483 1483 1483 1483 1482 1481 1481 1480 1480 1479 1478 1477 1475 1474 1473 1472 1472 1471 1470 1469 1469 1468 1467 1466 1465 1464 1464 1463 1462 1461 1460 1459 1458 1457 1456 1455 1453 1452 1451 1450 1449 1448 1447 1447 1446 1445 1444 1443 1442 1442 1440 1439 1438 1437 1436 1435 1434 1432 1431 1430 1429 1427 1426 1425 1424 1422 1422 1420 1419 1417 1416 1414 1412 1411 1410 1409 1408 1407 1406 1405 1404 1403 1402 1401 1400 1399
1482 1482 1482 1482 1481 1480 1478 1478 1478 1478 1477 1476 1474 1473 1472 1470 1469 1469 1468 1467 1467 1466 1466 1464 1463 1462 1462 1462 1461 1460 1458 1457 1456 1455 1453 1452 1451 1450 1449 1448 1447 1446 1446 1445 1444 1443 1442 1442 1441 1440 1439 1438 1437 1436 1434 1433 1432 1431 1429 1428 1427 1425 1424 1423 1422 1421 1419 1418 1417 1415 1413 1412 1411 1409 1408 1407 1406 1405 1404 1403 1402 1401 1400 1399 1398 1397
1482 1481 1480 1480 1479 1478 1477 1476 1476 1476 1476 1474 1473 1472 1471 1470 1468 1467 1466 1466 1465 1465 1464 1463 1462 1461 1460 1459 1459 1458 1457 1455 1454 1453 1452 1450 1449 1448 1447 1446 1445 1444 1443 1443 1442 1441 1440 1439 1438 1437 1437 1436 1435 1434 1432 1431 1430 1428 1427 1426 1425 1423 1422 1421 1420 1419 1417 1416 1415 1413 1412 1410 1409 1407 1407 1405 1404 1403 1402 1401 1400 1399 1398 1397 1396 1395
1480 1480 1479 1478 1477 1477 1477 1475 1474 1474 1473 1472 1472 1471 1470 1470 1468 1467 1465 1463 1463 1463 1462 1462 1461 1459 1458 1456 1456 1455 1454 1452 1451 1450 1449 1448 1447 1446 1445 1444 1443 1442 1442 1441 1440 1439 1438 1437 1436 1435 1435 1434 1433 1432 1430 1429 1428 1427 1425 1424 1423 1422 1421 1419 1418 1417 1416 1414 1412 1411 1409 1408 1407 1406 1405 1403 1402 1401 1400 1399 1397 1397 1396 1395 1394 1393
1479 1478 1477 1477 1476 1476 1475 1474 1473 1472 1472 1471 1470 1469 1469 1468 1468 1467 1464 1462 1461 1460 1460 1459 1458 1458 1457 1455 1453 1452 1451 1450 1448 1447 1446 1445 1444 1443 1443 1442 1441 1441 1440 1439 1438 1437 1436 1435 1434 1433 1433 1432 1430 1429 1428 1427 1426 1424 1423 1422 1421 1420 1419 1417 1416 1415 1413 1412 1411 1409 1408 1406 1405 1404 1402 1401 1400 1399 1398 1397 1396 1395 1394 1393 1392 1391
1478 1477 1477 1476 1475 1474 1474 1473 1472 1471 1471 1470 1469 1468 1467 1466 1466 1465 1463 1462 1460 1459 1458 1457 1456 1455 1455 1454 1452 1451 1449 1447 1446 1445 1444 1443 1442 1442 1441 1440 1440 1439 1438 1437 1436 1436 1435 1434 1433 1432 1431 1429 1428 1427 1426 1424 1423 1422 1422 1420 1419 1418 1417 1416 1415 1413 1412 1410 1409 1407 1406 1405 1403 1402 1401 1399 1398 1397 1396 1395 1394 1393 1392 1391 1390 1388
1477 1477 1476 1475 1474 1473 1473 1472 1472 1471 1470 1469 1468 1467 1466 1465 1464 1463 1462 1460 1459 1458 1457 1456 1454 1453 1452 1451 1450 1449 1447 1446 1444 1443 1442 1442 1442 1441 1440 1439 1437 1437 1436 1435 1434 1433 1433 1432 1430 1429 1428 1427 1425 1424 1423 1422 1421 1421 1420 1419 1418 1417 1416 1414 1413 1412 1410 1408 1407 1406 1404 1403 1402 1400 1399 1397 1396 1395 1394 1393 1392 1391 1389 1388 1387 1387
1476 1476 1475 1474 1473 1472 1472 1472 1471 1469 1468 1467 1467 1466 1465 1463 1462 1462 1460 1458 1457 1456 1456 1454 1452 1451 1450 1449 1448 1447 1446 1445 1443 1442 1442 1440 1440 1440 1438 1437 1435 1434 1433 1432 1431 1430 1430 1429 1428 1426 1425 1424 1423 1422 1422 1421 1420 1419 1418 1417 1416 1415 1414 1412 1411 1410 1408 1407 1405 1404 1402 1401 1400 1398 1397 1395 1394 1393 1392 1391 1390 1389 1387 1387 1386 1385
1476 1475 1474 1473 1472 1472 1471 1470 1469 1468 1467 1467 1466 1465 1464 1462 1461 1460 1459 1457 1456 1455 1454 1452 1450 1448 1447 1447 1447 1446 1445 1444 1442 1441 1440 1438 1437 1437 1437 1435 1433 1432 1431 1430 1429 1428 1427 1427 1426 1425 1423 1422 1422 1421 1420 1419 1418 1417 1417 1416 1414 1413 1412 1411 1409 1408 1407 1405 1403 1402 1401 1399 1397 1396 1395 1393 1392 1391 1390 1389 1388 1387 1386 1385 1384 1383
1475 1474 1473 1472 1471 1470 1469 1469 1468 1468 1467 1466 1464 1463 1462 1461 1460 1459 1457 1456 1455 1454 1453 1452 1450 1448 1446 1446 1445 1445 1445 1443 1441 1439 1437 1436 1435 1435 1434 1433 1431 1430 1429 1428 1428 1427 1426 1425 1424 1423 1422 1421 1420 1419 1419 1418 1417 1416 1415 1414 1413 1412 1410 1409 1407 1406 1405 1403 1402 1400 1399 1397 1396 1394 1393 1392 1391 1389 1388 1387 1386 1385 1384 1382 1382 1381
1474 1473 1472 1471 1470 1469 1468 1468 1467 1466 1465 1464 1463 1462 1461 1460 1459 1458 1457 1455 1454 1453 1452 1451 1450 1449 1447 1445 1443 1443 1443 1442 1439 1437 1435 1434 1433 1432 1432 1432 1430 1429 1428 1427 1427 1426 1425 1424 1423 1422 1421 1420 1419 1418 1417 1417 1416 1414 1413 1412 1411 1410 1408 1407 1406 1404 1403 1401 1400 1398 1397 1395 1394 1392 1391 1390 1389 1388 1386 1385 1384 1383 1382 1381 1380 1378
1473 1472 1471 1470 1469 1468 1467 1467 1466 1465 1464 1463 1462 1461 1459 1458 1458 1457 1456 1454 1453 1452 1452 1451 1449 1448 1446 1444 1442 1441 1442 1441 1438 1436 1434 1433 1432 1431 1432 1431 1429 1428 1427 1426 1426 1425 1424 1423 1422 1421 1420 1419 1418 1417 1416 1415 1414 1413 1412 1410 1409 1408 1407 1405 1404 1402 1401 1399 1398 1396 1395 1393 1392 1391 1389 1388 1387 1386 1385 1383 1382 1381 1380 1379 1378 1377
1472 1471 1471 1469 1468 1467 1466 1466 1465 1464 1463 1462 1461 1460 1458 1457 1456 1455 1454 1453 1452 1451 1450 1449 1448 1447 1445 1443 1441 1440 1440 1439 1437 1436 1434 1432 1431 1431 1431 1430 1429 1427 1426 1425 1425 1424 1423 1422 1420 1419 1418 1417 1416 1415 1414 1413 1412 1411 1410 1409 1407 1406 1405 1404 1402 1401 1399 1397 1396 1394 1393 1391 1390 1389 1388 1387 1385 1384 1383 1382 1380 1379 1378 1377 1376 1375
1471 1470 1469 1469 1468 1467 1465 1464 1464 1463 1462 1461 1460 1458 1457 1456 1454 1453 1452 1451 1450 1449 1448 1448 1447 1445 1444 1442 1440 1439 1439 1438 1437 1435 1433 1432 1431 1430 1430 1429 1428 1427 1425 1424 1423 1422 1421 1420 1419 1418 1417 1416 1414 1413 1412 1411 1410 1409 1408 1407 1406 1405 1403 1402 1400 1399 1397 1395 1394 1392 1391 1390 1388 1387 1386 1385 1383 1382 1381 1380 1379 1378 1377 1376 1375 1373
1470 1469 1468 1468 1467 1466 1465 1463 1462 1462 1461 1460 1458 1457 1456 1454 1453 1452 1451 1450 1449 1448 1447 1446 1445 1443 1442 1441 1440 1439 1439 1437 1436 1434 1433 1431 1430 1429 1429 1428 1427 1426 1424 1423 1422 1421 1420 1418 1417 1416 1415 1414 1413 1412 1411 1410 1408 1407 1406 1405 1404 1403 1402 1400 1398 1397 1395 1393 1392 1391 1389 1388 1387 1386 1384 1383 1382 1381 1379 1378 1377 1376 1375 1374 1373 1372
1470 1469 1467 1467 1466 1465 1463 1462 1461 1460 1459 1459 1457 1456 1455 1454 1452 1451 1450 1449 1448 1447 1446 1444 1443 1442 1441 1440 1439 1438 1438 1437 1436 1434 1433 1431 1429 1428 1427 1427 1426 1424 1422 1421 1420 1419 1418 1417 1416 1414 1413 1412 1411 1410 1409 1408 1407 1406 1405 1403 1402 1401 1399 1398 1396 1395 1393 1392 1390 1389 1387 1387 1385 1384 1383 1382 1380 1379 1378 1377 1376 1375 1373 1372 1371 1370
1468 1467 1466 1465 1464 1463 1462 1461 1460 1459 1458 1457 1457 1455 1454 1453 1452 1450 1449 1449 1447 1446 1444 1442 1441 1440 1439 1439 1438 1437 1437 1435 1434 1434 1432 1431 1429 1427 1427 1426 1424 1422 1421 1420 1419 1417 1416 1415 1413 1412 1412 1410 1409 1408 1407 1406 1405 1404 1403 1402 1400 1399 1397 1396 1394 1393 1391 1390 1389 1387 1386 1385 1384 1382 1381 1380 1379 1377 1377 1375 1374 1373 1372 1370 1369 1367
1467 1466 1465 1464 1463 1462 1461 1460 1459 1458 1457 1456 1455 1453 1452 1451 1450 1449 1448 1447 1446 1444 1442 1441 1440 1438 1437 1437 1436 1436 1435 1434 1433 1432 1432 1430 1428 1427 1426 1425 1423 1422 1420 1418 1417 1416 1414 1413 1412 1411 1409 1408 1407 1407 1406 1404 1403 1402 1401 1400 1398 1397 1395 1394 1392 1391 1390 1388 1387 1386 1385 1383 1382 1381 1380 1378 1377 1376 1375 1373 1372 1371 1370 1368 1367 1365
1466 1465 1464 1463 1462 1461 1460 1459 1458 1457 1456 1455 1453 1452 1451 1449 1448 1447 1446 1445 1444 1442 1441 1440 1439 1437 1437 1436 1435 1435 1434 1433 1432 1432 1431 1429 1427 1426 1425 1424 1422 1421 1419 1417 1416 1414 1412 1411 1410 1408 1407 1407 1406 1405 1404 1403 1402 1401 1399 1398 1396 1395 1393 1392 1391 1389 1388 1387 1386 1384 1383 1382 1381 1379 1378 1377 1376 1374 1373 1372 1371 1369 1367 1366 1364 1362
1465 1464 1463 1462 1461 1460 1459 1457 1457 1455 1454 1453 1452 1451 1449 1448 1447 1446 1445 1444 1443 1442 1440 1439 1438 1437 1436 1435 1435 1434 1434 1433 1432 1431 1430 1429 1427 1425 1424 1423 1422 1420 1418 1416 1414 1412 1411 1410 1408 1407 1406 1405 1404 1403 1402 1401 1400 1399 1397 1396 1394 1393 1392 1390 1389 1388 1387 1385 1384 1383 1382 1380 1379 1378 1377 1375 1374 1372 1371 1370 1369 1367 1366 1364 1362 1360
1464 1462 1462 1461 1459 1458 1457 1456 1455 1454 1453 1452 1452 1450 1448 1447 1446 1445 1444 1443 1442 1441 1440 1439 1438 1437 1436 1435 1434 1434 1434 1433 1432 1431 1430 1428 1427 1425 1424 1422 1421 1419 1417 1414 1412 1411 1410 1408 1407 1406 1405 1403 1402 1401 1400 1399 1398 1397 1395 1394 1392 1391 1390 1389 1388 1387 1385 1384 1383 1382 1380 1379 1377 1376 1375 1373 1372 1371 1370 1368 1367 1365 1364 1362 1361 1359
1462 1461 1460 1458 1457 1456 1455 1454 1453 1452 1452 1451 1450 1449 1447 1446 1446 1445 1444 1442 1441 1440 1439 1438 1438 1437 1436 1435 1434 1433 1433 1432 1431 1430 1429 1427 1426 1425 1423 1422 1420 1419 1416 1413 1411 1408 1407 1407 1406 1405 1403 1402 1401 1400 1398 1397 1396 1395 1393 1392 1391 1390 1389 1388 1387 1385 1384 1383 1381 1380 1379 1377 1376 1374 1373 1372 1371 1369 1368 1367 1366 1364 1362 1361 1360 1358
1459 1458 1457 1457 1456 1455 1454 1453 1452 1452 1451 1450 1449 1448 1447 1446 1445 1444 1443 1442 1441 1440 1439 1438 1437 1437 1436 1435 1433 1433 1432 1432 1431 1430 1428 1427 1426 1424 1423 1421 1420 1418 1416 1414 1410 1407 1405 1404 1404 1403 1402 1401 1399 1398 1397 1396 1394 1393 1392 1391 1390 1389 1388 1387 1385 1384 1383 1381 1380 1378 1377 1376 1374 1373 1372 1370 1369 1368 1367 1366 1364 1363 1362 1360 1359 1358
1457 1457 1456 1455 1454 1454 1453 1452 1451 1450 1450 1449 1448 1447 1446 1445 1444 1443 1442 1441 1440 1439 1438 1437 1437 1436 1436 1435 1434 1433 1432 1431 1431 1430 1428 1427 1426 1424 1422 1421 1419 1417 1417 1415 1412 1409 1405 1402 1401 1401 1401 1399 1398 1397 1396 1394 1393 1392 1391 1389 1388 1387 1387 1385 1384 1382 1381 1380 1379 1377 1376 1374 1373 1372 1370 1369 1368 1367 1365 1364 1364 1362 1361 1360 1358 1357
1456 1455 1455 1454 1453 1453 1452 1451 1450 1449 1449 1448 1447 1446 1445 1444 1443 1442 1441 1440 1439 1438 1438 1437 1437 1436 1436 1435 1435 1434 1432 1431 1430 1429 1428 1427 1425 1424 1422 1421 1419 1417 1416 1415 1414 1412 1408 1404 1401 1399 1398 1397 1397 1395 1394 1393 1392 1391 1390 1389 1387 1387 1386 1384 1383 1381 1380 1378 1377 1376 1374 1373 1372 1370 1369 1368 1367 1366 1365 1364 1363 1362 1361 1359 1358 1357
1455 1454 1454 1453 1452 1452 1451 1450 1449 1448 1448 1447 1446 1445 1444 1442 1442 1441 1440 1439 1438 1438 1437 1437 1437 1436 1435 1435 1434 1433 1432 1431 1430 1429 1428 1427 1425 1423 1422 1420 1419 1417 1415 1414 1413 1412 1410 1407 1403 1399 1397 1396 1395 1394 1393 1392 1392 1391 1389 1388 1387 1386 1384 1383 1382 1380 1378 1377 1376 1374 1373 1372 1370 1369 1368 1367 1366 1365 1364 1363 1362 1362 1361 1359 1358 1357
1454 1453 1452 1452 1451 1451 1450 1449 1448 1447 1447 1446 1445 1443 1442 1442 1441 1440 1440 1439 1438 1438 1437 1437 1437 1436 1435 1434 1433 1432 1432 1431 1430 1429 1428 1426 1425 1423 1421 1420 1418 1417 1415 1413 1412 1410 1409 1407 1404 1401 1397 1395 1394 1393 1393 1392 1391 1390 1389 1388 1387 1385 1383 1382 1381 1379 1377 1376 1375 1373 1372 1371 1369 1368 1367 1366 1365 1364 1363 1363 1362 1361 1360 1359 1357 1356
1452 1452 1451 1451 1450 1449 1448 1448 1447 1447 1446 1445 1444 1443 1442 1442 1441 1440 1439 1439 1438 1438 1437 1437 1437 1436 1435 1434 1433 1432 1431 1430 1429 1428 1427 1426 1425 1423 1421 1420 1418 1417 1415 1413 1411 1410 1407 1405 1403 1402 1399 1396 1393 1392 1392 1392 1391 1390 1389 1387 1386 1385 1383 1382 1380 1378 1377 1375 1374 1372 1371 1370 1369 1368 1367 1366 1365 1364 1363 1362 1361 1360 1359 1358 1357 1356
1452 1451 1450 1450 1449 1448 1447 1447 1446 1446 1445 1444 1443 1443 1442 1442 1441 1440 1439 1439 1438 1438 1438 1437 1437 1436 1436 1435 1433 1432 1431 1430 1429 1428 1427 1426 1425 1423 1422 1420 1418 1417 1415 1413 1411 1409 1407 1405 1403 1401 1400 1397 1394 1392 1391 1391 1390 1389 1388 1387 1386 1384 1383 1382 1380 1378 1377 1375 1374 1372 1371 1370 1369 1367 1366 1365 1364 1364 1363 1362 1361 1360 1359 1358 1357 1356
1451 1450 1450 1449 1448 1448 1447 1446 1446 1445 1444 1444 1444 1443 1442 1442 1441 1440 1440 1439 1439 1438 1438 1437 1437 1436 1436 1435 1434 1432 1431 1429 1428 1427 1427 1426 1425 1423 1422 1420 1418 1417 1415 1413 1411 1409 1407 1405 1402 1401 1399 1397 1395 1393 1391 1390 1389 1388 1387 1386 1385 1384 1382 1381 1380 1378 1377 1375 1374 1373 1372 1370 1369 1367 1366 1365 1364 1363 1362 1361 1360 1359 1358 1357 1357 1356
1450 1449 1449 1448 1448 1447 1447 1446 1446 1445 1444 1444 1444 1443 1442 1442 1441 1440 1440 1439 1438 1438 1438 1437 1437 1436 1435 1434 1433 1432 1431 1429 1428 1427 1426 1425 1424 1423 1421 1419 1417 1416 1415 1413 1412 1410 1408 1406 1403 1401 1399 1397 1396 1394 1392 1391 1389 1387 1386 1385 1385 1383 1382 1381 1380 1378 1377 1376 1374 1373 1372 1370 1369 1367 1366 1365 1364 1363 1362 1361 1360 1359 1358 1357 1356 1355
1450 1449 1449 1448 1447 1447 1447 1446 1446 1445 1445 1445 1445 1444 1442 1442 1441 1441 1440 1439 1439 1438 1437 1437 1436 1436 1435 1434 1433 1432 1431 1429 1428 1427 1426 1424 1423 1422 1420 1418 1417 1415 1414 1413 1411 1410 1408 1406 1404 1402 1400 1397 1395 1393 1392 1391 1389 1388 1386 1384 1383 1382 1382 1381 1379 1378 1377 1376 1374 1373 1372 1370 1369 1367 1366 1365 1364 1362 1362 1360 1359 1358 1357 1356 1355 1354
1450 1449 1448 1448 1448 1447 1447 1446 1446 1445 1445 1445 1444 1443 1443 1442 1441 1441 1440 1440 1439 1438 1437 1437 1436 1435 1435 1434 1433 1432 1431 1429 1428 1427 1425 1424 1422 1421 1420 1418 1416 1414 1413 1412 1410 1409 1408 1406 1404 1402 1401 1398 1396 1394 1392 1391 1390 1388 1387 1384 1382 1382 1381 1380 1379 1378 1377 1376 1375 1373 1372 1370 1369 1367 1366 1365 1364 1362 1361 1360 1359 1358 1357 1355 1354 1352
1450 1449 1448 1448 1447 1447 1447 1447 1446 1446 1446 1445 1444 1443 1443 1442 1441 1441 1440 1440 1439 1438 1437 1437 1436 1435 1434 1433 1433 1432 1431 1429 1428 1426 1425 1423 1422 1420 1419 1417 1416 1414 1412 1410 1409 1408 1407 1405 1403 1401 1400 1398 1396 1394 1392 1391 1390 1389 1388 1386 1384 1382 1381 1380 1380 1379 1377 1376 1375 1373 1372 1370 1369 1367 1366 1365 1364 1362 1362 1360 1359 1357 1356 1355 1354 1352
1450 1449 1449 1448 1447 1447 1447 1446 1446 1446 1446 1445 1444 1443 1443 1442 1442 1441 1440 1439 1438 1438 1437 1436 1435 1434 1433 1433 1432 1431 1430 1429 1427 1426 1424 1423 1421 1420 1418 1417 1415 1413 1412 1410 1408 1407 1405 1404 1402 1401 1399 1398 1396 1394 1392 1391 1390 1390 1388 1387 1385 1382 1381 1380 1380 1379 1377 1376 1375 1373 1372 1371 1369 1367 1366 1365 1363 1362 1361 1360 1359 1357 1356 1355 1353 1352
1450 1449 1449 1448 1448 1447 1447 1446 1446 1446 1446 1445 1444 1444 1443 1442 1442 1441 1440 1439 1438 1437 1437 1436 1435 1434 1433 1432 1431 1430 1429 1428 1427 1425 1424 1422 1421 1419 1417 1416 1415 1413 1411 1409 1407 1405 1403 1403 1402 1400 1399 1398 1397 1395 1393 1391 1390 1389 1388 1387 1386 1383 1381 1380 1379 1378 1377 1376 1375 1374 1372 1371 1369 1368 1366 1365 1363 1362 1361 1360 1359 1357 1356 1355 1353 1352
1450 1450 1449 1448 1448 1447 1447 1446 1445 1445 1445 1445 1444 1444 1443 1443 1442 1441 1441 1440 1438 1438 1437 1436 1435 1434 1433 1432 1430 1429 1428 1427 1426 1424 1423 1422 1420 1418 1417 1415 1414 1412 1411 1409 1407 1404 1402 1402 1401 1400 1399 1398 1397 1395 1393 1392 1390 1389 1388 1387 1386 1385 1384 1382 1380 1378 1377 1376 1375 1374 1372 1371 1369 1368 1366 1365 1363 1362 1361 1359 1358 1357 1356 1354 1353 1351
1451 1450 1449 1448 1448 1447 1446 1446 1445 1445 1445 1445 1445 1444 1444 1443 1442 1442 1441 1440 1439 1438 1437 1436 1435 1434 1432 1431 1430 1428 1427 1426 1425 1423 1422 1421 1419 1418 1416 1414 1413 1411 1410 1408 1407 1405 1403 1401 1400 1399 1399 1398 1397 1396 1394 1392 1390 1389 1387 1387 1386 1385 1383 1382 1381 1379 1377 1376 1375 1374 1373 1371 1369 1368 1366 1364 1363 1362 1360 1359 1357 1356 1355 1354 1352 1351
1451 1450 1449 1449 1448 1447 1447 1446 1446 1445 1445 1445 1445 1444 1444 1443 1442 1442 1441 1440 1439 1438 1437 1437 1436 1434 1433 1431 1430 1428 1426 1425 1423 1422 1421 1419 1418 1417 1415 1414 1412 1411 1409 1408 1407 1405 1403 1402 1400 1399 1398 1397 1396 1395 1394 1392 1391 1389 1387 1387 1385 1384 1383 1382 1381 1379 1378 1377 1375 1374 1372 1371 1369 1367 1366 1364 1363 1361 1360 1359 1357 1356 1355 1353 1352 1351
1451 1450 1450 1449 1448 1447 1447 1446 1446 1446 1446 1446 1445 1445 1444 1443 1443 1442 1441 1440 1439 1438 1437 1437 1436 1434 1433 1432 1430 1428 1426 1424 1423 1421 1420 1418 1417 1416 1414 1413 1412 1411 1409 1407 1406 1405 1403 1402 1401 1399 1398 1397 1395 1394 1393 1392 1391 1390 1388 1387 1385 1384 1382 1381 1380 1379 1378 1377 1376 1374 1372 1370 1368 1367 1365 1364 1362 1361 1360 1359 1357 1356 1355 1353 1352 1351
1451 1451 1450 1449 1449 1448 1447 1447 1446 1446 1446 1446 1446 1445 1445 1444 1443 1442 1441 1440 1440 1439 1437 1437 1435 1434 1433 1432 1430 1429 1427 1425 1423 1422 1420 1418 1416 1415 1413 1412 1411 1410 1408 1407 1406 1405 1403 1402 1401 1400 1399 1397 1396 1394 1393 1392 1391 1390 1388 1387 1385 1383 1382 1381 1380 1379 1378 1377 1376 1374 1372 1371 1369 1367 1365 1363 1362 1360 1359 1358 1357 1356 1355 1354 1352 1351
1452 1451 1450 1450 1449 1448 1447 1447 1446 1446 1446 1446 1446 1446 1445 1444 1443 1442 1442 1441 1440 1439 1438 1437 1435 1434 1433 1432 1430 1429 1427 1426 1424 1422 1420 1418 1417 1415 1413 1411 1410 1408 1407 1406 1405 1404 1404 1402 1402 1400 1399 1398 1397 1395 1394 1392 1391 1390 1388 1387 1385 1384 1382 1381 1380 1379 1378 1377 1376 1374 1373 1371 1370 1368 1366 1364 1362 1360 1359 1358 1357 1356 1355 1353 1352 1351
1452 1451 1451 1450 1449 1449 1448 1447 1447 1446 1446 1446 1446 1446 1445 1444 1443 1443 1442 1441 1440 1439 1438 1437 1436 1434 1433 1432 1431 1429 1427 1426 1424 1422 1421 1419 1417 1415 1413 1411 1409 1407 1406 1404 1403 1403 1402 1402 1402 1401 1400 1399 1397 1396 1394 1392 1390 1389 1387 1386 1385 1384 1382 1381 1380 1379 1378 1377 1375 1374 1372 1371 1370 1368 1367 1365 1363 1361 1359 1358 1357 1355 1354 1353 1352 1350
1452 1451 1451 1450 1450 1449 1448 1448 1447 1447 1446 1446 1446 1446 1445 1444 1444 1443 1442 1442 1441 1439 1438 1437 1436 1435 1433 1432 1431 1429 1428 1426 1425 1423 1421 1420 1418 1416 1414 1412 1409 1407 1405 1404 1402 1401 1401 1400 1400 1400 1400 1399 1398 1396 1394 1392 1390 1388 1387 1386 1385 1384 1382 1381 1380 1378 1377 1376 1375 1373 1372 1371 1370 1368 1367 1365 1363 1361 1359 1358 1356 1355 1354 1352 1351 1349